Météo par heure à Jungapeo

Ce jour, 20 Juin, Dimanche

Heure Température Précipitation Vent Pression Humidité
00:00 +17°C° 0 mm 0 m/s 638 mmHg 96%
01:00 +17°C° 0 mm 0 m/s 637 mmHg 95%
02:00 +17°C° 0 mm 0 m/s 637 mmHg 95%
03:00 +17°C° 0 mm 0 m/s 637 mmHg 95%
04:00 +17°C° 0 mm 0 m/s 637 mmHg 95%
05:00 +17°C° 0 mm 0 m/s 637 mmHg 95%
06:00 +18°C° 0 mm 0 m/s 638 mmHg 89%
07:00 +22°C° 0 mm 1 m/s 639 mmHg 84%
08:00 +23°C° 0 mm 1 m/s 639 mmHg 79%
09:00 +24°C° 0.2 mm 1 m/s 640 mmHg 74%
10:00 +26°C° 0.2 mm 2 m/s 640 mmHg 68%
11:00 +27°C° 0.2 mm 2 m/s 640 mmHg 63%
12:00 +27°C° 0.5 mm 2 m/s 639 mmHg 63%
13:00 +27°C° 0.5 mm 2 m/s 639 mmHg 63%
14:00 +27°C° 0.5 mm 2 m/s 638 mmHg 62%
15:00 +26°C° 0.3 mm 2 m/s 638 mmHg 66%
16:00 +26°C° 0.3 mm 2 m/s 638 mmHg 70%
17:00 +25°C° 0.3 mm 1 m/s 638 mmHg 74%
18:00 +24°C° 0.2 mm 1 m/s 638 mmHg 79%
19:00 +23°C° 0.2 mm 1 m/s 638 mmHg 84%
20:00 +22°C° 0.2 mm 1 m/s 638 mmHg 89%
21:00 +19°C° 0.2 mm 0 m/s 638 mmHg 90%
22:00 +19°C° 0.2 mm 0 m/s 638 mmHg 91%
23:00 +19°C° 0.2 mm 0 m/s 638 mmHg 92%

Demain, 21 Juin, Lundi

Heure Température Précipitation Vent Pression Humidité
00:00 +19°C° 0.1 mm 0 m/s 638 mmHg 92%
01:00 +19°C° 0.1 mm 0 m/s 638 mmHg 93%
02:00 +18°C° 0.1 mm 0 m/s 637 mmHg 93%
03:00 +18°C° 0 mm 0 m/s 637 mmHg 93%
04:00 +18°C° 0 mm 0 m/s 637 mmHg 93%
05:00 +18°C° 0 mm 0 m/s 637 mmHg 93%
06:00 +19°C° 0 mm 0 m/s 638 mmHg 88%
07:00 +20°C° 0 mm 0 m/s 638 mmHg 84%
08:00 +23°C° 0 mm 1 m/s 639 mmHg 80%
09:00 +25°C° 0 mm 1 m/s 639 mmHg 72%
10:00 +26°C° 0 mm 2 m/s 639 mmHg 65%
11:00 +28°C° 0 mm 2 m/s 639 mmHg 58%
12:00 +28°C° 0.6 mm 2 m/s 638 mmHg 58%
13:00 +28°C° 0.6 mm 2 m/s 638 mmHg 59%
14:00 +28°C° 0.6 mm 2 m/s 637 mmHg 60%
15:00 +26°C° 3.8 mm 2 m/s 637 mmHg 69%
16:00 +24°C° 3.8 mm 1 m/s 637 mmHg 78%
17:00 +22°C° 3.8 mm 1 m/s 636 mmHg 87%
18:00 +22°C° 2.4 mm 1 m/s 637 mmHg 89%
19:00 +21°C° 2.4 mm 1 m/s 637 mmHg 91%
20:00 +20°C° 2.4 mm 1 m/s 637 mmHg 93%
21:00 +20°C° 0.4 mm 1 m/s 637 mmHg 92%
22:00 +20°C° 0.4 mm 1 m/s 638 mmHg 92%
23:00 +20°C° 0.4 mm 1 m/s 638 mmHg 92%

Après-demain, 22 Juin, Mardi

Heure Température Précipitation Vent Pression Humidité
00:00 +20°C° 2.5 mm 1 m/s 637 mmHg 93%
01:00 +20°C° 2.5 mm 1 m/s 637 mmHg 93%
02:00 +20°C° 2.5 mm 1 m/s 636 mmHg 94%
03:00 +20°C° 1.3 mm 1 m/s 636 mmHg 94%
04:00 +20°C° 1.3 mm 1 m/s 636 mmHg 93%
05:00 +18°C° 1.3 mm 0 m/s 636 mmHg 92%
06:00 +19°C° 0 mm 0 m/s 637 mmHg 86%
07:00 +20°C° 0 mm 0 m/s 637 mmHg 81%
08:00 +21°C° 0 mm 0 m/s 638 mmHg 75%
09:00 +25°C° 0.1 mm 1 m/s 638 mmHg 70%
10:00 +26°C° 0.1 mm 1 m/s 638 mmHg 65%
11:00 +27°C° 0.1 mm 2 m/s 638 mmHg 60%
12:00 +27°C° 0.5 mm 2 m/s 638 mmHg 61%
13:00 +27°C° 0.5 mm 2 m/s 637 mmHg 61%
14:00 +28°C° 0.5 mm 2 m/s 637 mmHg 62%
15:00 +27°C° 0.5 mm 1 m/s 637 mmHg 67%
16:00 +26°C° 0.5 mm 1 m/s 636 mmHg 72%
17:00 +25°C° 0.5 mm 1 m/s 636 mmHg 77%
18:00 +24°C° 0.5 mm 1 m/s 636 mmHg 80%
19:00 +23°C° 0.5 mm 1 m/s 636 mmHg 83%
20:00 +22°C° 0.5 mm 1 m/s 636 mmHg 86%
21:00 +22°C° 1.2 mm 1 m/s 637 mmHg 87%
22:00 +21°C° 1.2 mm 1 m/s 637 mmHg 88%
23:00 +21°C° 1.2 mm 1 m/s 637 mmHg 89%

23 Juin, Mercredi

Heure Température Précipitation Vent Pression Humidité
00:00 +21°C° 1.7 mm 1 m/s 637 mmHg 90%
01:00 +20°C° 1.7 mm 1 m/s 636 mmHg 91%
02:00 +20°C° 1.7 mm 1 m/s 636 mmHg 92%
03:00 +20°C° 1.6 mm 1 m/s 636 mmHg 93%
04:00 +20°C° 1.6 mm 1 m/s 636 mmHg 93%
05:00 +20°C° 1.6 mm 1 m/s 637 mmHg 94%
06:00 +20°C° 1 mm 1 m/s 637 mmHg 94%
07:00 +20°C° 1 mm 1 m/s 638 mmHg 94%
08:00 +20°C° 1 mm 1 m/s 638 mmHg 95%
09:00 +21°C° 0.4 mm 1 m/s 639 mmHg 93%
10:00 +21°C° 0.4 mm 1 m/s 639 mmHg 92%
11:00 +21°C° 0.4 mm 1 m/s 639 mmHg 90%
12:00 +22°C° 0.2 mm 1 m/s 638 mmHg 86%
13:00 +21°C° 0.2 mm 0 m/s 638 mmHg 81%
14:00 +22°C° 0.2 mm 0 m/s 638 mmHg 76%
15:00 +21°C° 0.2 mm 0 m/s 637 mmHg 79%
16:00 +21°C° 0.2 mm 0 m/s 637 mmHg 81%
17:00 +21°C° 0.2 mm 0 m/s 637 mmHg 83%
18:00 +22°C° 0.1 mm 1 m/s 637 mmHg 85%
19:00 +21°C° 0.1 mm 1 m/s 637 mmHg 86%
20:00 +21°C° 0.1 mm 1 m/s 637 mmHg 88%
21:00 +20°C° 0.1 mm 1 m/s 637 mmHg 88%
22:00 +20°C° 0.1 mm 1 m/s 638 mmHg 88%
23:00 +20°C° 0.1 mm 1 m/s 638 mmHg 88%

24 Juin, Jeudi

Heure Température Précipitation Vent Pression Humidité
00:00 +20°C° 0.1 mm 1 m/s 637 mmHg 87%
01:00 +20°C° 0.1 mm 1 m/s 637 mmHg 86%
02:00 +20°C° 0.1 mm 1 m/s 637 mmHg 85%
03:00 +20°C° 0 mm 1 m/s 637 mmHg 86%
04:00 +19°C° 0 mm 1 m/s 637 mmHg 86%
05:00 +19°C° 0 mm 1 m/s 637 mmHg 86%
06:00 +20°C° 0.1 mm 1 m/s 637 mmHg 82%
07:00 +22°C° 0.1 mm 1 m/s 638 mmHg 78%
08:00 +21°C° 0.1 mm 0 m/s 638 mmHg 73%
09:00 +24°C° 0.3 mm 1 m/s 638 mmHg 69%
10:00 +26°C° 0.3 mm 1 m/s 638 mmHg 65%
11:00 +27°C° 0.3 mm 1 m/s 638 mmHg 61%
12:00 +26°C° 1.2 mm 1 m/s 638 mmHg 67%
13:00 +25°C° 1.2 mm 1 m/s 637 mmHg 73%
14:00 +24°C° 1.2 mm 1 m/s 636 mmHg 79%
15:00 +23°C° 1.4 mm 1 m/s 636 mmHg 83%
16:00 +22°C° 1.4 mm 1 m/s 636 mmHg 87%
17:00 +21°C° 1.4 mm 1 m/s 635 mmHg 91%
18:00 +21°C° 0.9 mm 1 m/s 636 mmHg 91%
19:00 +20°C° 0.9 mm 1 m/s 636 mmHg 91%
20:00 +20°C° 0.9 mm 1 m/s 636 mmHg 91%
21:00 +20°C° 0.8 mm 1 m/s 636 mmHg 92%
22:00 +19°C° 0.8 mm 1 m/s 637 mmHg 93%
23:00 +19°C° 0.8 mm 1 m/s 637 mmHg 94%

25 Juin, Vendredi

Heure Température Précipitation Vent Pression Humidité
00:00 +19°C° 0.1 mm 1 m/s 636 mmHg 93%
01:00 +19°C° 0.1 mm 1 m/s 635 mmHg 92%
02:00 +18°C° 0.1 mm 2 m/s 635 mmHg 91%
03:00 +17°C° 0 mm 2 m/s 635 mmHg 91%
04:00 +17°C° 0 mm 2 m/s 635 mmHg 91%
05:00 +17°C° 0 mm 2 m/s 635 mmHg 90%
06:00 +19°C° 0 mm 2 m/s 635 mmHg 83%
07:00 +22°C° 0 mm 1 m/s 636 mmHg 75%
08:00 +24°C° 0 mm 1 m/s 636 mmHg 68%
09:00 +25°C° 0.2 mm 1 m/s 636 mmHg 63%
10:00 +26°C° 0.2 mm 1 m/s 636 mmHg 59%
11:00 +27°C° 0.2 mm 1 m/s 636 mmHg 55%
12:00 +27°C° 0.7 mm 1 m/s 636 mmHg 60%
13:00 +26°C° 0.7 mm 1 m/s 635 mmHg 66%
14:00 +25°C° 0.7 mm 1 m/s 635 mmHg 72%
15:00 +24°C° 1.4 mm 1 m/s 634 mmHg 75%
16:00 +24°C° 1.4 mm 1 m/s 634 mmHg 79%
17:00 +23°C° 1.4 mm 1 m/s 634 mmHg 82%
18:00 +22°C° 1.3 mm 1 m/s 634 mmHg 85%
19:00 +21°C° 1.3 mm 1 m/s 634 mmHg 88%
20:00 +20°C° 1.3 mm 1 m/s 635 mmHg 90%
21:00 +20°C° 0.3 mm 1 m/s 635 mmHg 90%
22:00 +20°C° 0.3 mm 1 m/s 635 mmHg 91%
23:00 +20°C° 0.3 mm 1 m/s 635 mmHg 91%
Voir plus

Nous avons besoin de votre consentement

Meteoprog et ses fournisseurs de services peuvent stocker et accéder à des données personnelles telles que des cookies, des identifiants d'appareils ou d'autres technologies similaires sur votre appareil et traiter ces données pour personnaliser le contenu et les publicités, ainsi que pour fournir des fonctionnalités de médias sociaux et analyser le trafic.

  • Stocker et/ou accéder à des informations sur votre appareil

    Des cookies, des identifiants d'appareils ou d'autres informations peuvent être stockés ou accessibles sur votre appareil aux fins indiquées ci-dessus.

  • Annonces et contenus personnalisés, mesure des annonces et des contenus, connaissance de l'audience et développement de produits

    Les annonces et le contenu peuvent être personnalisés en fonction d'un profil. D'autres données peuvent être ajoutées pour mieux personnaliser les annonces et le contenu. Les performances des publicités et du contenu peuvent être mesurées. Il est possible d'obtenir des informations sur le public qui a vu les publicités et le contenu. Ces données peuvent être utilisées pour développer ou améliorer l'expérience de l'utilisateur, les systèmes et les logiciels.

En cliquant sur "J'accepte", vous autorisez l'utilisation de cookies, des identifiants d'appareils, des balises web ou d'autres technologies similaires. Vos paramètres peuvent être modifiés dans le navigateur de votre appareil.

Dans certains cas, des intérêts légitimes peuvent être invoqués plutôt qu'un consentement. Vous pouvez en savoir plus à ce sujet dans notre Politique de confidentialité et de cookies.